| time (UTC) | temp C | wind direction | speed KPH | gust KPH | rain 1hr cm | rain 24hr cm | rain mn cm | humidity % | barometer mb |
| 20260510120123 | 18 | 180 | 0.0 | 0.0 | 0.00 | 0.08 | 0.00 | 96 | 1011.4 |
| 20260510115123 | 18 | 203 | 0.0 | 0.0 | 0.00 | 0.08 | 0.00 | 96 | 1011.4 |
| 20260510114144 | 18 | 225 | 0.0 | 0.0 | 0.00 | 0.08 | 0.00 | 96 | 1011.5 |
| 20260510113123 | 18 | 203 | 0.0 | 0.0 | 0.00 | 0.08 | 0.00 | 96 | 1011.4 |
| 20260510112123 | 18 | 225 | 0.0 | 0.0 | 0.00 | 0.08 | 0.00 | 95 | 1011.4 |
| 20260510111123 | 18 | 180 | 0.0 | 0.0 | 0.00 | 0.08 | 0.00 | 95 | 1011.4 |
| 20260510110126 | 18 | 203 | 0.0 | 0.0 | 0.00 | 0.08 | 0.00 | 95 | 1011.4 |
| 20260510105123 | 18 | 203 | 0.0 | 0.0 | 0.00 | 0.08 | 0.00 | 95 | 1011.4 |
| 20260510104123 | 18 | 180 | 0.0 | 0.0 | 0.00 | 0.08 | 0.00 | 95 | 1011.4 |
| 20260510103123 | 18 | 203 | 0.0 | 0.0 | 0.00 | 0.08 | 0.00 | 95 | 1011.5 |
| 20260510102123 | 18 | 203 | 0.0 | 0.0 | 0.00 | 0.08 | 0.00 | 95 | 1011.6 |
| 20260510101123 | 19 | 225 | 0.0 | 0.0 | 0.00 | 0.08 | 0.00 | 95 | 1011.5 |
| 20260510100123 | 19 | 135 | 0.0 | 0.0 | 0.00 | 0.08 | 0.00 | 94 | 1011.5 |
| 20260510095144 | 19 | 203 | 0.0 | 0.0 | 0.00 | 0.08 | 0.00 | 94 | 1011.4 |
| 20260510094125 | 19 | 203 | 0.0 | 0.0 | 0.00 | 0.08 | 0.00 | 94 | 1011.4 |
| 20260510093125 | 19 | 225 | 0.0 | 0.0 | 0.00 | 0.08 | 0.00 | 93 | 1011.3 |
| 20260510092125 | 19 | 203 | 0.0 | 0.0 | 0.00 | 0.08 | 0.00 | 92 | 1011.2 |
| 20260510091123 | 20 | 203 | 0.0 | 0.0 | 0.00 | 0.08 | 0.00 | 92 | 1011.3 |
| 20260510090123 | 20 | 203 | 0.0 | 0.0 | 0.00 | 0.08 | 0.00 | 91 | 1011.3 |
| 20260510085123 | 20 | 180 | 0.0 | 0.0 | 0.00 | 0.08 | 0.00 | 91 | 1011.3 |
| 20260510084123 | 20 | 180 | 0.0 | 0.0 | 0.00 | 0.08 | 0.00 | 91 | 1011.3 |
| 20260510083123 | 20 | 203 | 0.0 | 0.0 | 0.00 | 0.08 | 0.00 | 90 | 1011.2 |
| 20260510082125 | 20 | 203 | 0.0 | 0.0 | 0.00 | 0.08 | 0.00 | 89 | 1011.2 |
| 20260510081126 | 20 | 203 | 0.0 | 0.0 | 0.00 | 0.08 | 0.00 | 88 | 1011.2 |
| 20260510080147 | 20 | 203 | 0.0 | 0.0 | 0.00 | 0.08 | 0.00 | 87 | 1011.3 |
| 20260510075123 | 21 | 203 | 0.0 | 0.0 | 0.00 | 0.08 | 0.00 | 86 | 1011.2 |
| 20260510074123 | 21 | 180 | 0.0 | 0.0 | 0.00 | 0.08 | 0.00 | 85 | 1011.2 |
| 20260510073123 | 21 | 203 | 0.0 | 0.0 | 0.00 | 0.08 | 0.00 | 84 | 1011.2 |
| 20260510072123 | 21 | 180 | 0.0 | 0.0 | 0.00 | 0.08 | 0.00 | 84 | 1011.2 |
| 20260510071123 | 22 | 203 | 0.0 | 0.0 | 0.00 | 0.08 | 0.00 | 83 | 1011.3 |
| 20260510070126 | 22 | 203 | 0.0 | 0.0 | 0.00 | 0.08 | 0.00 | 83 | 1011.3 |
| 20260510065125 | 22 | 180 | 0.0 | 0.0 | 0.00 | 0.08 | 0.00 | 82 | 1011.1 |
| 20260510064126 | 22 | 113 | 0.0 | 0.0 | 0.00 | 0.08 | 0.00 | 81 | 1011.2 |
| 20260510063123 | 22 | 203 | 0.0 | 0.0 | 0.00 | 0.08 | 0.00 | 79 | 1011.3 |
| 20260510062144 | 23 | 203 | 0.0 | 0.0 | 0.00 | 0.08 | 0.00 | 78 | 1011.3 |
| 20260510061123 | 23 | 152 | 1.6 | 3.2 | 0.00 | 0.08 | 0.00 | 77 | 1011.2 |
| 20260510060123 | 23 | 135 | 1.6 | 3.2 | 0.00 | 0.08 | 0.00 | 76 | 1011.2 |
| 20260510055123 | 23 | 158 | 1.6 | 4.8 | 0.00 | 0.08 | 0.00 | 76 | 1011.3 |
| 20260510054126 | 23 | 102 | 1.6 | 4.8 | 0.00 | 0.08 | 0.00 | 76 | 1011.2 |
| 20260510053126 | 23 | 179 | 0.0 | 3.2 | 0.00 | 0.08 | 0.00 | 77 | 1011.2 |
| 20260510052126 | 23 | 236 | 0.0 | 1.6 | 0.00 | 0.08 | 0.00 | 77 | 1011.1 |
| 20260510051123 | 24 | 203 | 0.0 | 0.0 | 0.00 | 0.08 | 0.00 | 75 | 1011.1 |
| 20260510050123 | 24 | 132 | 0.0 | 4.8 | 0.00 | 0.08 | 0.00 | 74 | 1011.1 |
| 20260510045123 | 25 | 192 | 1.6 | 4.8 | 0.00 | 0.08 | 0.08 | 73 | 1011.0 |
| 20260510044123 | 25 | 184 | 1.6 | 4.8 | 0.00 | 0.08 | 0.08 | 73 | 1011.1 |
| 20260510043123 | 25 | 197 | 1.6 | 4.8 | 0.00 | 0.08 | 0.08 | 73 | 1011.1 |
| 20260510042146 | 25 | 180 | 1.6 | 4.8 | 0.00 | 0.08 | 0.08 | 73 | 1011.0 |
| 20260510041125 | 23 | 200 | 1.6 | 4.8 | 0.00 | 0.08 | 0.08 | 79 | 1010.9 |
| 20260510040125 | 23 | 203 | 0.0 | 0.0 | 0.00 | 0.08 | 0.08 | 77 | 1011.0 |
| 20260510035123 | 24 | 203 | 0.0 | 0.0 | 0.00 | 0.08 | 0.08 | 75 | 1010.9 |
| 20260510034123 | 25 | 203 | 0.0 | 0.0 | 0.00 | 0.08 | 0.08 | 73 | 1010.9 |
| 20260510033123 | 25 | 180 | 0.0 | 0.0 | 0.00 | 0.08 | 0.08 | 72 | 1010.9 |
| 20260510032123 | 25 | 203 | 0.0 | 0.0 | 0.00 | 0.08 | 0.08 | 70 | 1010.8 |
| 20260510031123 | 26 | 203 | 0.0 | 0.0 | 0.00 | 0.08 | 0.08 | 68 | 1010.8 |
| 20260510030123 | 26 | 169 | 0.0 | 1.6 | 0.00 | 0.08 | 0.08 | 66 | 1010.9 |
| 20260510025125 | 26 | 191 | 0.0 | 1.6 | 0.00 | 0.08 | 0.08 | 66 | 1010.8 |
| 20260510024125 | 27 | 148 | 1.6 | 4.8 | 0.00 | 0.08 | 0.08 | 63 | 1010.8 |
| 20260510023123 | 27 | 113 | 1.6 | 4.8 | 0.00 | 0.08 | 0.08 | 62 | 1010.7 |
| 20260510022144 | 27 | 125 | 1.6 | 4.8 | 0.00 | 0.08 | 0.08 | 61 | 1010.7 |
| 20260510021123 | 27 | 101 | 1.6 | 3.2 | 0.00 | 0.08 | 0.08 | 59 | 1010.5 |
| 20260510020144 | 27 | 196 | 0.0 | 3.2 | 0.00 | 0.08 | 0.08 | 57 | 1010.5 |
| 20260510015123 | 28 | 104 | 0.0 | 4.8 | 0.00 | 0.08 | 0.08 | 56 | 1010.4 |
| 20260510014144 | 28 | 141 | 1.6 | 8.0 | 0.00 | 0.08 | 0.08 | 54 | 1010.3 |
| 20260510013126 | 28 | 158 | 3.2 | 6.4 | 0.00 | 0.08 | 0.08 | 52 | 1010.2 |
| 20260510012126 | 29 | 112 | 3.2 | 8.0 | 0.00 | 0.08 | 0.08 | 51 | 1010.1 |
| 20260510011123 | 30 | 125 | 4.8 | 9.7 | 0.00 | 0.08 | 0.08 | 51 | 1009.9 |
| 20260510010123 | 30 | 183 | 3.2 | 8.0 | 0.00 | 0.08 | 0.08 | 52 | 1010.0 |
| 20260510005144 | 30 | 186 | 3.2 | 4.8 | 0.00 | 0.08 | 0.08 | 52 | 1010.0 |
| 20260510004123 | 31 | 138 | 3.2 | 6.4 | 0.00 | 0.08 | 0.08 | 51 | 1009.8 |
| 20260510003123 | 31 | 158 | 3.2 | 4.8 | 0.00 | 0.08 | 0.08 | 49 | 1009.8 |
| 20260510002123 | 32 | 186 | 1.6 | 4.8 | 0.00 | 0.08 | 0.08 | 48 | 1009.7 |
| 20260510001126 | 32 | 180 | 3.2 | 6.4 | 0.00 | 0.08 | 0.08 | 47 | 1009.6 |
| 20260510000125 | 33 | 132 | 1.6 | 4.8 | 0.00 | 0.08 | 0.08 | 45 | 1009.6 |
| 20260509235144 | 34 | 188 | 3.2 | 4.8 | 0.00 | 0.08 | 0.08 | 44 | 1009.4 |
| 20260509234123 | 35 | 201 | 1.6 | 4.8 | 0.00 | 0.08 | 0.08 | 42 | 1009.5 |
| 20260509233123 | 33 | 174 | 3.2 | 6.4 | 0.00 | 0.08 | 0.08 | 44 | 1009.7 |
| 20260509232123 | 34 | 188 | 3.2 | 9.7 | 0.00 | 0.08 | 0.08 | 43 | 1009.7 |
| 20260509231123 | 34 | 192 | 1.6 | 4.8 | 0.00 | 0.08 | 0.08 | 44 | 1009.7 |
| 20260509230123 | 35 | 147 | 3.2 | 8.0 | 0.00 | 0.08 | 0.08 | 43 | 1009.7 |
| 20260509225146 | 36 | 166 | 3.2 | 6.4 | 0.00 | 0.08 | 0.08 | 42 | 1009.6 |
| 20260509224124 | 36 | 213 | 3.2 | 6.4 | 0.00 | 0.08 | 0.08 | 42 | 1009.6 |
| 20260509223125 | 34 | 177 | 4.8 | 8.0 | 0.00 | 0.08 | 0.08 | 44 | 1009.6 |
| 20260509222123 | 34 | 192 | 4.8 | 8.0 | 0.00 | 0.08 | 0.08 | 44 | 1009.6 |
| 20260509221123 | 35 | 170 | 3.2 | 6.4 | 0.00 | 0.08 | 0.08 | 44 | 1009.7 |
| 20260509220123 | 35 | 188 | 3.2 | 8.0 | 0.00 | 0.08 | 0.08 | 43 | 1009.7 |
| 20260509215123 | 35 | 248 | 3.2 | 6.4 | 0.00 | 0.08 | 0.08 | 45 | 1009.8 |
| 20260509214123 | 34 | 229 | 3.2 | 6.4 | 0.00 | 0.08 | 0.08 | 45 | 1009.7 |
| 20260509213125 | 36 | 231 | 3.2 | 9.7 | 0.00 | 0.08 | 0.08 | 45 | 1009.8 |
| 20260509212145 | 35 | 239 | 3.2 | 6.4 | 0.00 | 0.08 | 0.08 | 44 | 1009.9 |
| 20260509211124 | 36 | 232 | 3.2 | 4.8 | 0.00 | 0.08 | 0.08 | 44 | 1010.0 |
| 20260509210123 | 36 | 230 | 3.2 | 6.4 | 0.00 | 0.08 | 0.08 | 46 | 1010.0 |
| 20260509205123 | 35 | 219 | 3.2 | 6.4 | 0.00 | 0.08 | 0.08 | 47 | 1010.1 |
| 20260509204144 | 35 | 228 | 3.2 | 9.7 | 0.00 | 0.08 | 0.08 | 46 | 1010.2 |
| 20260509203144 | 35 | 182 | 3.2 | 6.4 | 0.00 | 0.08 | 0.08 | 47 | 1010.3 |
| 20260509202144 | 34 | 224 | 3.2 | 6.4 | 0.00 | 0.08 | 0.08 | 48 | 1010.4 |
| 20260509201146 | 35 | 238 | 3.2 | 4.8 | 0.00 | 0.08 | 0.08 | 47 | 1010.5 |
| 20260509200124 | 35 | 211 | 3.2 | 8.0 | 0.00 | 0.08 | 0.08 | 47 | 1010.5 |
| 20260509195144 | 35 | 225 | 3.2 | 6.4 | 0.00 | 0.08 | 0.08 | 46 | 1010.7 |
| 20260509194123 | 33 | 258 | 3.2 | 8.0 | 0.00 | 0.08 | 0.08 | 50 | 1010.8 |
| 20260509193123 | 33 | 248 | 4.8 | 8.0 | 0.00 | 0.08 | 0.08 | 47 | 1010.9 |
| 20260509192123 | 33 | 229 | 3.2 | 6.4 | 0.00 | 0.08 | 0.08 | 51 | 1010.8 |
| 20260509191123 | 32 | 261 | 3.2 | 6.4 | 0.00 | 0.08 | 0.08 | 54 | 1011.0 |
| 20260509190123 | 33 | 217 | 3.2 | 8.0 | 0.00 | 0.08 | 0.08 | 51 | 1011.0 |
| 20260509185123 | 33 | 198 | 3.2 | 4.8 | 0.00 | 0.08 | 0.08 | 53 | 1011.0 |
| 20260509184123 | 33 | 218 | 3.2 | 6.4 | 0.00 | 0.08 | 0.08 | 53 | 1011.1 |
| 20260509183144 | 33 | 203 | 3.2 | 9.7 | 0.00 | 0.08 | 0.08 | 52 | 1011.2 |
| 20260509182123 | 33 | 207 | 4.8 | 8.0 | 0.00 | 0.08 | 0.08 | 55 | 1011.2 |
| 20260509181123 | 33 | 210 | 3.2 | 4.8 | 0.00 | 0.08 | 0.08 | 55 | 1011.3 |
| 20260509180123 | 32 | 246 | 4.8 | 8.0 | 0.00 | 0.08 | 0.08 | 58 | 1011.3 |
| 20260509175144 | 32 | 225 | 3.2 | 3.2 | 0.00 | 0.08 | 0.08 | 56 | 1011.3 |
| 20260509173122 | 31 | 222 | 3.2 | 6.4 | 0.00 | 0.08 | 0.08 | 57 | 1011.4 |
| 20260509172125 | 32 | 235 | 3.2 | 6.4 | 0.00 | 0.08 | 0.08 | 57 | 1011.4 |
| 20260509171124 | 31 | 219 | 3.2 | 9.7 | 0.00 | 0.08 | 0.08 | 62 | 1011.4 |
| 20260509170122 | 30 | 222 | 3.2 | 8.0 | 0.00 | 0.08 | 0.08 | 66 | 1011.4 |
| 20260509165122 | 31 | 161 | 3.2 | 6.4 | 0.00 | 0.08 | 0.08 | 63 | 1011.4 |
| 20260509164122 | 30 | 182 | 3.2 | 4.8 | 0.00 | 0.08 | 0.08 | 69 | 1011.5 |
| 20260509163122 | 30 | 233 | 3.2 | 6.4 | 0.00 | 0.08 | 0.08 | 73 | 1011.5 |
| 20260509162122 | 29 | 239 | 3.2 | 4.8 | 0.00 | 0.08 | 0.08 | 75 | 1011.3 |
| 20260509161146 | 29 | 210 | 3.2 | 6.4 | 0.00 | 0.08 | 0.08 | 74 | 1011.3 |
| 20260509160123 | 28 | 220 | 1.6 | 4.8 | 0.00 | 0.08 | 0.08 | 75 | 1011.3 |
| 20260509155123 | 28 | 200 | 1.6 | 6.4 | 0.00 | 0.08 | 0.08 | 77 | 1011.5 |
| 20260509154122 | 28 | 209 | 1.6 | 4.8 | 0.08 | 0.08 | 0.08 | 82 | 1011.5 |
| 20260509153122 | 27 | 202 | 0.0 | 1.6 | 0.08 | 0.08 | 0.08 | 89 | 1011.8 |
| 20260509152143 | 24 | 180 | 0.0 | 1.6 | 0.08 | 0.08 | 0.08 | 94 | 1011.8 |
| 20260509151122 | 24 | 203 | 0.0 | 0.0 | 0.08 | 0.08 | 0.08 | 95 | 1011.7 |
| 20260509150122 | 23 | 90 | 0.0 | 0.0 | 0.08 | 0.08 | 0.08 | 96 | 1011.7 |
| 20260509145122 | 23 | 202 | 0.0 | 1.6 | 0.08 | 0.08 | 0.08 | 95 | 1011.8 |
| 20260509144126 | 23 | 200 | 0.0 | 3.2 | 0.00 | 0.00 | 0.00 | 95 | 1011.8 |
| 20260509143126 | 23 | 196 | 0.0 | 3.2 | 0.00 | 0.00 | 0.00 | 95 | 1011.7 |
| 20260509142122 | 23 | 174 | 0.0 | 3.2 | 0.00 | 0.00 | 0.00 | 95 | 1011.6 |
| 20260509141122 | 23 | 117 | 1.6 | 3.2 | 0.00 | 0.00 | 0.00 | 94 | 1011.6 |
| 20260509140122 | 23 | 170 | 1.6 | 3.2 | 0.00 | 0.00 | 0.00 | 94 | 1011.6 |
| 20260509135122 | 23 | 158 | 0.0 | 1.6 | 0.00 | 0.00 | 0.00 | 94 | 1011.1 |
| 20260509134143 | 23 | 353 | 0.0 | 4.8 | 0.00 | 0.00 | 0.00 | 94 | 1011.0 |
| 20260509133143 | 23 | 110 | 0.0 | 4.8 | 0.00 | 0.00 | 0.00 | 94 | 1011.1 |
| 20260509132125 | 23 | 96 | 1.6 | 4.8 | 0.00 | 0.00 | 0.00 | 94 | 1011.1 |
| 20260509131125 | 23 | 195 | 1.6 | 4.8 | 0.00 | 0.00 | 0.00 | 95 | 1011.1 |
| 20260509130122 | 23 | 163 | 1.6 | 3.2 | 0.00 | 0.00 | 0.00 | 95 | 1011.1 |
| 20260509125122 | 23 | 158 | 0.0 | 3.2 | 0.00 | 0.00 | 0.00 | 97 | 1011.4 |
| 20260509124122 | 22 | 174 | 0.0 | 3.2 | 0.00 | 0.00 | 0.00 | 97 | 1011.2 |
| 20260509123143 | 22 | 187 | 0.0 | 3.2 | 0.00 | 0.00 | 0.00 | 98 | 1011.3 |
| 20260509122143 | 22 | 211 | 0.0 | 4.8 | 0.00 | 0.00 | 0.00 | 98 | 1011.4 |
| 20260509121122 | 22 | 170 | 0.0 | 4.8 | 0.00 | 0.00 | 0.00 | 98 | 1011.4 |